Simultaneous Nadir Overpasses (SNOs) Predictions

Prediction of SNOs between NOAA-15 and METOP-C Satellite Orbit:

Table of predicted SNOs for the next 14.0 days since TLE Epoch: 10/22/2021
Index Date (NOAA-15) Time (NOAA-15) Lat,Lon (NOAA-15) SZA (NOAA-15 ) Date (METOP-C) Time (METOP-C) Lat,Lon (METOP-C) SZA (METOP-C ) Distance(km) Time Diff (sec)
1 11/04/2021 23:46:55 81.01,-138.63 98.91 11/04/2021 23:45:44 81.02,-138.71 98.87 1.66 71
2 11/05/2021 00:37:24 -81.02, 28.67 81.09 11/05/2021 00:36:26 -81.02, 28.68 81.11 0.72 58
3 11/05/2021 01:27:58 81.03,-164.22 98.91 11/05/2021 01:27:06 81.02,-164.19 98.88 1.49 52



Historial Predications of SNOs between NOAA-15 and METOP-C
